ECMWFNIL_700_rhum_021.txt.gz
RH
101 94 87 85 84 84 82 80 84 85 81 72 60 53 49 45 41 38 39 49 61 72 77 80 85 95 101 100 98 95 89 84 79 75 74 75 75 77 75 66 64 64
102 98 91 90 90 87 84 81 83 86 86 83 72 63 57 54 51 47 42 43 50 59 67 71 74 80 91 99 100 100 98 95 90 85 80 77 76 77 77 72 67 66
102 100 95 95 96 92 87 82 80 79 79 82 78 70 63 58 54 52 51 50 52 58 63 67 68 70 78 90 98 100 100 99 98 97 93 87 82 79 76 76 73 70
101 100 97 98 98 96 92 87 83 80 77 78 79 75 68 61 54 51 52 53 53 55 58 62 65 67 71 78 87 93 97 99 99 100 100 97 91 86 82 82 79 74
101 101 98 98 99 98 96 92 89 86 82 77 75 74 72 67 60 52 49 48 47 47 47 49 52 56 60 62 67 74 81 90 96 98 101 101 97 92 88 87 85 80
99 101 100 99 100 101 99 96 93 89 86 82 77 74 71 69 66 61 54 48 45 43 40 39 39 42 45 47 48 52 56 64 74 84 93 99 101 97 92 88 86 84
100 99 101 100 99 101 101 99 96 92 88 84 81 78 75 71 67 65 63 56 49 44 40 37 35 34 36 39 40 40 42 43 46 53 66 81 94 100 98 92 87 85
101 99 100 101 100 100 100 100 99 98 95 89 84 80 79 76 72 68 67 63 58 53 48 43 40 37 37 39 40 40 41 40 39 38 40 48 64 81 94 97 94 91
100 100 100 100 100 100 100 100 100 100 100 97 92 87 82 78 77 74 72 69 67 63 58 53 48 45 44 44 43 43 42 41 41 40 37 34 36 46 62 80 92 97
100 100 99 99 100 101 101 101 100 100 100 100 99 97 92 84 79 79 77 74 71 68 64 59 53 48 45 43 43 42 41 41 39 39 39 38 34 30 32 43 61 80
101 99 99 100 99 99 100 100 100 100 100 101 100 100 99 90 81 79 77 72 68 64 60 56 52 49 44 40 39 38 38 39 40 39 39 39 38 34 28 25 31 46
97 97 96 97 95 94 94 94 94 94 95 99 101 100 101 95 85 79 74 67 61 56 51 48 46 44 42 39 38 39 39 40 43 45 44 42 41 38 32 26 22 26
89 91 93 92 92 93 92 88 85 83 85 92 98 99 101 99 91 84 79 69 59 51 44 40 38 36 35 34 35 39 43 47 49 49 48 45 43 40 37 31 25 23
90 89 88 87 88 90 90 88 85 81 77 81 90 93 94 96 90 84 84 75 62 52 44 39 38 38 38 37 38 41 46 50 52 50 47 44 41 39 37 34 31 27
99 96 92 91 91 92 93 95 96 90 77 75 84 86 88 93 88 83 84 79 66 56 48 44 43 41 41 42 46 49 51 52 52 48 45 42 39 36 33 32 33 31
101 102 100 99 98 99 100 101 102 98 86 79 81 82 88 96 94 90 88 79 67 57 50 47 43 39 41 45 48 50 51 50 48 46 46 46 41 35 30 29 30 29
100 103 102 101 100 99 100 101 101 101 96 89 83 82 91 100 100 98 92 77 66 59 52 48 43 39 42 47 48 48 49 50 50 50 52 51 47 42 36 34 33 31
99 100 99 99 99 96 96 98 100 101 99 92 86 88 96 100 100 101 95 80 68 63 59 55 49 45 46 47 48 50 55 60 62 57 52 49 47 48 48 46 45 42
99 99 98 99 99 97 96 97 98 101 97 90 89 95 100 101 101 101 94 82 75 71 68 64 56 51 50 49 51 55 60 66 63 55 49 46 45 49 55 56 56 57
101 99 98 99 100 100 99 98 98 100 98 93 94 99 100 98 96 91 84 79 78 75 70 64 57 53 53 54 54 56 58 61 61 56 53 50 45 47 57 66 70 72
100 98 97 99 101 100 100 100 99 98 98 99 100 99 97 93 87 82 78 77 76 73 68 62 56 53 54 55 56 55 56 61 66 65 61 58 55 56 64 76 84 85
99 97 98 99 99 99 99 100 99 96 96 98 100 99 96 89 83 80 76 72 70 69 66 59 55 55 55 54 53 52 55 63 70 72 73 76 79 82 85 90 95 95
99 99 99 99 99 99 100 99 99 99 98 99 100 98 94 89 84 79 71 64 61 62 61 56 52 54 55 53 56 61 65 70 74 77 82 88 94 97 99 99 100 100
100 100 100 100 100 99 99 100 100 100 99 98 97 97 96 94 88 76 65 60 61 64 66 63 58 59 62 65 73 81 81 78 77 78 82 91 97 100 101 101 100 100
100 100 99 100 100 100 101 101 100 99 97 95 97 99 96 90 82 74 71 75 81 83 83 79 75 75 78 80 82 82 80 77 76 78 87 95 100 101 101 100 99 100
100 100 100 100 100 100 100 99 98 97 97 96 97 94 87 82 84 87 91 95 98 97 95 93 92 92 91 86 78 74 75 78 79 85 95 101 101 100 100 99 99 100

ECMWFNIL_700_rhum_024.txt.gz
RH
85 85 92 98 99 99 97 95 97 97 95 94 95 96 93 87 87 94 97 95 94 95 91 81 76 78 83 90 97 100 99 99 100 100 100 100 98 97 97 97 98 98
90 92 94 98 100 98 95 96 100 100 98 100 99 96 93 90 89 92 96 98 95 94 96 92 84 83 90 98 100 101 100 99 100 100 100 100 99 98 98 96 94 95
96 99 99 99 99 99 98 99 101 100 99 100 100 97 92 91 92 93 96 99 97 94 95 96 90 81 82 93 101 101 101 100 99 100 100 100 100 99 99 99 97 95
91 93 96 98 98 98 101 100 99 100 101 100 100 98 95 94 93 94 97 99 98 98 97 94 93 83 70 76 91 98 100 101 100 101 101 100 100 100 99 100 100 99
94 93 92 94 97 98 100 98 98 100 100 99 99 97 96 95 92 90 91 92 93 98 99 94 90 81 67 61 69 82 92 97 99 100 101 101 100 99 100 100 100 101
99 100 96 94 97 100 100 98 99 100 101 99 97 97 98 97 96 93 92 90 88 92 98 98 94 89 81 67 57 61 71 81 89 94 97 99 100 100 100 100 100 100
100 102 100 96 96 99 101 100 98 98 101 99 97 99 100 99 99 100 97 94 92 94 97 97 96 95 91 79 62 53 53 58 66 75 81 85 89 92 94 96 99 100
101 102 100 97 95 98 100 99 98 98 100 100 98 98 99 100 101 101 101 100 98 98 94 91 94 96 94 86 68 53 49 50 50 54 59 64 68 72 76 80 85 90
100 101 101 99 93 95 100 100 99 100 100 100 100 99 99 101 101 97 98 101 100 99 93 88 91 96 99 96 82 65 55 51 51 50 48 48 51 54 57 61 63 67
99 99 101 101 95 95 100 101 99 99 100 99 100 100 98 98 96 93 95 97 97 98 96 92 90 90 95 99 96 90 76 61 57 57 52 47 46 47 49 52 53 53
97 100 100 100 99 98 98 99 100 100 100 100 101 98 93 94 96 95 96 97 95 94 95 96 92 88 90 91 90 94 87 69 58 57 54 51 49 48 48 49 51 50
95 100 101 100 100 99 97 97 98 98 98 97 97 93 88 93 98 97 95 94 94 94 93 94 92 86 86 85 80 79 75 64 55 52 51 49 48 48 48 48 49 48
92 96 100 102 100 99 98 97 95 96 95 94 93 91 89 91 95 95 94 92 93 95 93 92 90 83 79 78 74 70 66 60 54 51 48 46 46 47 48 48 48 47
87 91 97 102 102 100 99 99 98 97 96 96 95 92 91 90 87 88 90 89 93 98 97 94 89 78 70 66 63 62 61 58 55 53 51 49 49 50 50 50 49 48
82 86 93 100 102 102 100 100 101 100 98 97 94 93 94 94 92 92 90 89 94 99 100 99 91 76 66 58 51 49 50 52 52 52 51 49 50 53 55 53 51 50
82 86 92 96 99 101 102 101 101 100 100 99 97 99 101 101 100 97 92 92 98 100 100 100 93 78 66 58 52 48 48 51 54 53 51 49 50 54 57 56 54 51
85 89 93 96 98 100 101 102 101 100 101 101 101 102 102 102 103 98 93 96 100 100 99 101 98 86 72 63 60 61 61 61 60 58 56 54 52 53 55 55 54 51
88 91 94 98 101 102 100 100 100 101 102 102 101 101 100 100 99 97 97 100 100 100 100 100 100 96 87 77 73 71 71 68 64 58 54 52 52 52 52 51 50 49
92 95 98 100 102 103 101 99 100 101 101 101 101 101 100 98 98 99 102 102 100 100 100 99 100 101 97 90 83 76 71 69 65 59 54 51 50 50 50 50 50 50
99 99 100 101 102 102 101 101 102 101 101 101 101 102 101 99 99 100 101 100 100 101 101 99 97 95 92 88 85 81 75 70 66 62 56 52 49 49 50 50 49 48
101 100 101 102 101 101 101 101 101 101 100 100 101 101 101 100 100 100 100 101 100 99 97 92 88 87 86 85 85 83 81 77 72 64 55 50 49 50 50 48 46 45
101 100 101 101 100 101 102 100 100 100 100 100 100 100 99 98 99 99 99 99 97 93 89 85 84 84 81 78 76 74 75 75 69 61 53 49 49 49 47 46 45 46
101 100 100 101 101 101 101 101 102 101 100 99 100 99 98 98 97 96 94 90 86 85 82 78 78 80 77 71 67 68 72 70 63 57 52 49 48 48 46 46 46 49
101 100 100 101 101 100 100 101 102 102 100 100 101 101 99 94 86 80 80 81 82 84 82 77 78 82 83 79 74 78 84 80 69 62 56 50 48 48 49 52 56 63
100 100 100 101 101 100 100 101 101 101 100 98 97 93 87 78 71 71 78 88 93 92 86 81 80 80 81 80 81 86 94 95 91 87 80 73 67 63 62 67 76 84
100 100 100 100 100 100 100 100 98 96 95 94 91 86 80 77 79 83 87 91 92 89 88 88 85 81 78 77 78 85 94 99 101 100 96 89 84 80 80 85 93 98

ECMWFNIL_700_rhum_027.txt.gz
RH
100 96 91 86 82 81 81 82 83 84 87 88 87 93 100 99 96 96 97 99 98 92 87 92 97 94 94 95 91 83 73 72 89 102 100 99 100 100 100 100 100 100
95 97 94 90 86 86 86 88 89 88 88 90 94 98 102 100 98 99 99 99 101 97 88 88 97 99 99 102 99 92 82 74 80 94 101 100 100 100 100 100 100 100
92 97 96 91 89 88 87 90 94 93 90 92 99 101 100 100 100 99 100 100 99 98 92 89 96 100 98 99 98 95 93 84 78 88 99 100 100 100 99 100 100 99
88 93 92 91 93 91 88 89 95 97 93 95 101 101 100 101 100 98 99 101 100 96 92 91 95 99 98 96 97 98 99 95 85 88 98 100 100 100 100 100 100 100
81 85 85 87 93 96 94 93 97 100 96 94 100 101 101 101 100 100 99 100 101 98 94 91 91 95 96 95 97 100 101 99 92 89 96 100 100 100 100 100 100 100
77 79 81 84 91 97 99 97 98 102 98 94 98 101 101 101 100 100 100 100 101 99 97 94 90 90 94 95 96 96 96 98 96 93 94 96 99 100 100 100 100 100
73 76 78 84 89 94 98 98 97 101 99 94 98 101 102 103 102 100 100 100 100 100 97 96 93 89 91 94 96 96 95 94 93 90 87 88 96 100 100 100 100 100
70 73 76 81 87 90 94 96 97 100 100 94 95 99 101 102 101 100 101 100 100 101 99 99 99 94 90 89 92 97 99 97 94 93 88 83 86 93 98 101 100 99
68 68 72 77 82 88 91 92 93 96 99 97 94 95 99 102 101 99 101 101 100 100 99 99 98 95 93 90 89 93 98 100 100 99 95 85 78 82 89 97 100 100
67 67 70 73 79 85 86 88 91 95 99 100 97 94 96 100 101 100 101 100 99 100 100 100 98 94 96 96 93 93 96 100 101 99 96 86 77 74 78 85 91 94
69 69 70 71 74 77 80 86 93 97 99 100 98 95 95 96 98 99 99 96 95 96 95 96 96 95 96 99 98 95 96 99 99 98 96 91 82 74 71 73 77 78
70 71 71 71 71 73 80 89 94 96 99 99 98 97 94 94 95 95 94 90 88 89 87 87 92 93 93 96 98 98 98 99 98 97 96 94 89 81 72 69 68 66
71 72 73 71 71 74 80 87 90 93 96 96 96 95 92 90 91 90 88 83 80 80 82 87 92 91 89 91 94 96 99 101 100 98 95 91 89 86 78 71 66 62
74 74 73 73 73 75 77 80 83 87 92 93 94 94 92 89 88 87 85 83 81 80 81 86 91 91 89 89 91 96 100 101 99 96 92 87 83 79 73 68 65 62
80 78 76 76 75 73 73 75 79 85 91 96 97 97 97 96 93 91 89 88 89 89 87 85 87 91 92 91 93 99 101 100 96 88 83 78 73 67 62 59 58 57
87 83 79 78 76 74 76 81 87 92 95 98 99 100 101 100 99 97 95 95 96 96 94 89 87 90 91 92 97 101 101 100 94 84 76 71 66 62 56 51 50 52
92 88 86 87 88 89 92 94 96 97 98 99 101 101 101 99 98 97 96 98 99 99 100 98 94 93 94 95 98 101 101 100 94 84 76 69 63 60 58 54 52 54
98 96 96 98 100 101 100 99 98 99 100 102 102 103 102 100 98 98 99 100 100 100 102 102 99 97 98 98 98 100 101 101 97 88 79 74 68 62 59 57 56 57
102 101 101 101 100 101 101 100 100 102 103 103 102 102 101 100 99 99 99 99 99 100 101 101 100 99 99 97 97 100 100 100 99 89 75 68 63 57 52 49 50 52
101 100 100 100 100 101 102 102 102 102 102 102 102 101 101 101 100 99 98 98 99 100 100 100 100 100 100 99 99 100 99 100 102 92 77 68 64 59 56 52 51 52
100 100 100 100 100 101 102 102 102 101 101 101 101 100 100 100 100 99 100 100 100 100 99 100 101 99 100 100 99 99 99 100 101 94 82 75 69 64 60 56 55 56
100 100 100 100 100 100 100 101 100 100 99 100 101 100 99 99 99 99 99 98 98 99 99 99 100 99 98 98 99 99 97 96 95 91 85 79 74 70 65 60 58 57
100 100 100 100 100 100 100 100 100 100 98 95 97 100 99 99 98 97 97 96 96 97 97 97 99 100 98 95 93 92 89 84 80 77 74 72 71 69 67 65 63 59
100 100 100 100 101 100 100 100 99 100 99 96 97 100 101 101 100 97 96 96 96 97 98 99 100 100 99 96 93 91 90 86 82 78 73 70 68 66 62 60 60 59
100 100 100 100 100 100 100 99 97 97 98 99 101 100 100 101 99 96 96 98 99 99 99 98 98 99 100 100 99 99 99 98 97 94 87 79 76 73 67 61 57 57
100 100 100 100 100 101 101 99 99 100 100 101 101 101 101 102 100 99 99 100 100 100 97 96 96 96 96 98 100 100 100 101 100 96 89 82 82 84 83 78 73 69

ECMWFNIL_700_rhum_030.txt.gz
RH
100 95 90 85 83 85 85 85 85 81 77 73 73 78 80 79 80 77 74 74 73 74 80 83 78 78 82 85 87 86 79 71 61 50 49 68 93 102 99 99 100 100
99 95 89 81 77 78 80 84 86 83 77 73 74 78 79 81 83 82 80 80 82 85 87 85 82 84 88 90 92 93 89 81 75 68 57 54 72 93 100 100 99 100
98 93 84 77 73 73 78 84 85 83 78 75 76 77 79 83 86 86 84 83 86 90 91 89 86 88 91 90 91 93 93 90 82 81 80 70 66 76 89 98 100 100
86 81 75 70 69 72 77 80 78 79 80 78 76 78 82 88 93 92 85 85 91 92 91 91 88 88 88 88 93 93 92 93 91 91 95 91 81 73 73 83 93 98
77 73 70 67 66 69 73 72 72 75 78 77 75 79 84 89 96 97 88 86 94 96 93 91 88 87 87 86 92 94 93 95 97 100 101 98 96 89 75 70 75 86
78 76 73 70 68 68 67 66 70 74 75 75 75 78 83 88 94 97 90 86 92 95 94 91 88 88 89 88 89 92 95 97 98 103 103 99 100 99 87 74 67 71
75 75 73 72 71 68 66 65 68 70 71 72 72 75 83 87 91 93 90 87 90 94 92 89 87 87 88 90 91 92 94 97 98 101 103 100 100 100 94 84 72 66
72 72 69 69 70 68 66 66 65 65 67 66 66 74 84 87 87 91 92 89 91 93 91 88 87 87 90 92 94 96 96 96 97 98 99 99 100 100 98 91 80 69
71 70 66 65 67 68 67 66 64 64 64 65 69 77 85 88 88 90 92 92 93 93 92 91 88 88 92 94 93 95 96 95 93 92 92 94 97 98 96 93 87 77
72 71 69 66 65 69 71 68 65 64 64 68 76 83 86 88 89 90 92 93 94 95 94 92 87 85 90 92 93 96 94 93 92 89 88 90 92 95 96 94 91 84
75 73 73 69 67 71 73 69 66 64 66 71 80 86 87 87 89 92 91 90 91 94 95 92 86 84 85 86 91 95 93 92 93 90 88 87 87 91 96 97 93 87
79 77 75 71 69 72 72 70 69 67 69 73 77 79 79 81 86 90 87 84 87 92 93 91 87 87 86 83 84 89 92 95 96 93 91 89 87 90 95 98 96 92
84 81 78 74 72 73 71 70 71 69 67 68 68 68 71 77 85 90 88 86 87 89 91 88 84 85 89 88 84 86 92 95 94 95 97 95 93 93 94 96 95 92
89 86 83 78 75 74 73 72 73 71 68 67 69 73 79 85 91 94 95 94 90 88 89 87 82 80 84 86 84 84 89 92 91 95 100 101 100 96 93 94 92 91
94 92 89 85 82 79 79 78 78 77 76 76 79 84 88 91 93 95 95 94 93 90 89 88 85 81 79 80 81 81 84 88 91 95 98 100 102 100 96 94 94 93
100 100 98 95 91 87 86 84 82 82 83 85 88 90 92 93 94 96 94 92 92 92 91 90 88 86 84 82 82 83 85 88 92 96 98 99 102 103 101 99 98 98
101 101 102 102 99 96 94 92 92 93 93 94 95 95 96 97 98 99 99 97 95 92 92 92 91 91 91 89 86 85 86 89 93 96 98 99 102 102 100 98 98 96
100 100 101 101 101 102 101 99 101 102 102 101 101 101 101 100 100 99 99 98 97 95 94 94 95 96 97 95 92 90 90 90 92 95 98 100 102 101 97 91 88 86
100 100 100 100 100 101 101 101 102 103 104 103 102 103 103 101 100 100 100 100 98 98 97 96 98 99 99 99 99 97 94 92 93 96 99 101 101 100 96 88 80 75
100 100 100 100 100 100 100 101 101 101 102 101 101 102 101 100 100 99 100 102 101 100 99 98 100 101 100 102 102 99 96 96 97 99 99 98 96 94 91 86 79 73
100 100 100 100 100 100 100 100 100 100 100 100 101 100 100 100 99 98 96 96 97 98 97 97 99 101 101 101 99 98 98 99 100 100 98 95 90 88 86 84 81 76
100 99 100 101 99 100 100 100 101 101 100 101 101 100 100 100 99 99 98 97 96 96 97 98 99 99 100 100 98 98 99 100 99 98 96 91 85 82 82 83 83 82
101 100 100 100 100 100 100 100 101 100 99 100 101 100 99 99 98 100 100 100 101 99 98 99 99 98 97 98 98 99 98 97 95 94 93 90 87 84 83 82 81 80
100 100 100 100 100 100 99 99 98 96 95 98 100 100 99 96 97 99 98 96 96 96 94 95 97 96 94 94 97 98 97 96 95 93 90 88 86 85 84 83 82 80
100 100 100 100 100 100 99 99 99 98 98 99 99 99 98 95 94 97 98 94 90 90 92 94 97 99 98 98 97 96 97 97 95 91 85 80 78 75 72 69 68 68
100 101 100 100 101 101 100 99 97 94 93 93 93 94 96 96 96 98 99 97 95 95 96 96 96 97 100 99 94 92 92 90 88 88 89 88 87 84 77 70 64 61